Stena Europe — VSTA3 — position and weather

sailwx.info

Track history (hours):
 
Tides and Currents Weather Stations Pressure Air Temp Water Temp Dewpoint Dewpoint Depression Visibility Wind Speed Wind Dir Waves Ship Positions

Stena Europe

Operator: Stena Line

Last reported at 2017-Mar-24 19:34 UTC. Time now 2017-Mar-24 19:58 UTC.
Position N 52°15' W 006°20'.

Length 149 m; draft 6 m.

Type: Passenger vessel. MMSI: 235004539.

Date/timePositionNaut miles runAvg speedWind from/ knotsBaromVisibWave heightAir tempDewpointWater temp
2017-Mar-24 19:34N 52°15' W 006°20'0 0.0
2017-Mar-24 18:34N 52°15' W 006°20'5 4.6
2017-Mar-24 17:33N 52°14' W 006°13'1616.0
2017-Mar-24 16:33N 52°10' W 005°47'1 0.1
2017-Mar-24 10:17N 52°10' W 005°46'1217.1
2017-Mar-24 09:33N 52°13' W 006°06'9 9.3
2017-Mar-24 08:33N 52°15' W 006°20'0 0.0
2017-Mar-24 07:33N 52°15' W 006°20'0 0.1
2017-Mar-24 06:33N 52°15' W 006°20'1616.2
2017-Mar-24 05:33N 52°11' W 005°55'2 0.3
2017-Mar-23 23:33N 52°11' W 005°57'1514.5
2017-Mar-23 22:33N 52°15' W 006°20'0 0.0
2017-Mar-23 21:33N 52°15' W 006°20'8 8.4
2017-Mar-23 20:34N 52°20' W 006°09'2 2.5
2017-Mar-23 19:33N 52°17' W 006°10'7 6.6
2017-Mar-23 18:33N 52°15' W 006°20'4 4.4
2017-Mar-23 17:33N 52°14' W 006°13'1716.6
2017-Mar-23 16:33N 52°10' W 005°47'12 1.7
2017-Mar-23 09:33N 52°13' W 006°06'9 9.1
2017-Mar-23 08:33N 52°15' W 006°20'0 0.0
2017-Mar-23 07:33N 52°15' W 006°20'1 1.0
2017-Mar-23 06:33N 52°16' W 006°19'9 9.1
2017-Mar-23 05:34N 52°13' W 006°05'13 1.8
2017-Mar-22 22:31N 52°10' W 005°45'1516.0
2017-Mar-22 21:33N 52°13' W 006°09'7 7.0
2017-Mar-22 20:33N 52°15' W 006°20'0 0.0
2017-Mar-22 19:33N 52°15' W 006°20'0 0.0
2017-Mar-22 18:33N 52°15' W 006°20'4 4.5
2017-Mar-22 17:33N 52°14' W 006°13'1716.7
2017-Mar-22 16:33N 52°10' W 005°47'11 1.6
2017-Mar-22 09:33N 52°13' W 006°04'1010.3
2017-Mar-22 08:33N 52°15' W 006°20'0 0.0
2017-Mar-22 07:33N 52°15' W 006°20'0 0.0
2017-Mar-22 06:33N 52°15' W 006°20'1010.5
2017-Mar-22 05:34N 52°13' W 006°04'4 0.5
2017-Mar-21 22:04N 52°12' W 005°58'815.9
2017-Mar-21 21:33N 52°14' W 006°11'6 6.2
2017-Mar-21 20:33N 52°15' W 006°20'0 0.0
2017-Mar-21 19:34N 52°15' W 006°20'0 0.0
2017-Mar-21 18:33N 52°15' W 006°20'3 2.9
2017-Mar-21 17:33N 52°14' W 006°16'1616.2
2017-Mar-21 16:33N 52°11' W 005°50'1 0.2
2017-Mar-21 10:15N 52°11' W 005°48'1115.7
2017-Mar-21 09:33N 52°13' W 006°06'9 9.3
2017-Mar-21 08:33N 52°15' W 006°20'0 0.0
2017-Mar-21 07:33N 52°15' W 006°20'0 0.0
2017-Mar-21 06:33N 52°15' W 006°20'1110.8
2017-Mar-21 05:33N 52°12' W 006°03'4 0.6
2017-Mar-20 22:23N 52°11' W 005°57'1517.9
2017-Mar-20 21:33N 52°16' W 006°20'0 0.5
2017-Mar-20 20:33N 52°15' W 006°20'0 0.0
2017-Mar-20 19:33N 52°15' W 006°20'0 0.0
2017-Mar-20 18:33N 52°15' W 006°20'4 3.9
2017-Mar-20 17:34N 52°14' W 006°14'1717.2
2017-Mar-20 16:33N 52°10' W 005°47'12 1.7
2017-Mar-20 09:33N 52°13' W 006°06'9 9.1
2017-Mar-20 08:33N 52°15' W 006°20'0 0.0
2017-Mar-20 07:33N 52°15' W 006°20'0 0.0
2017-Mar-20 06:33N 52°15' W 006°20'1010.4
2017-Mar-20 05:34N 52°12' W 006°04'1312.7
2017-Mar-20 04:33N 52°10' W 005°43'14 2.0
2017-Mar-19 21:33N 52°13' W 006°06'9 8.9
2017-Mar-19 20:33N 52°15' W 006°20'0 0.0
2017-Mar-19 19:33N 52°15' W 006°20'0 0.0
2017-Mar-19 18:34N 52°15' W 006°20'10 9.5
2017-Mar-19 17:34N 52°13' W 006°05'12 1.7
2017-Mar-19 10:16N 52°10' W 005°46'1115.7
2017-Mar-19 09:33N 52°13' W 006°04'1010.5
2017-Mar-19 08:33N 52°15' W 006°20'0 0.0
2017-Mar-19 07:33N 52°15' W 006°20'0 0.0
2017-Mar-19 06:33N 52°15' W 006°20'10 9.5
2017-Mar-19 05:33N 52°13' W 006°05'1313.1
2017-Mar-19 04:33N 52°09' W 005°45'4 0.6
2017-Mar-18 22:29N 52°11' W 005°49'1617.6
2017-Mar-18 21:34N 52°14' W 006°15'3 3.3
2017-Mar-18 20:34N 52°15' W 006°20'0 0.0
2017-Mar-18 19:34N 52°15' W 006°20'0 0.0
2017-Mar-18 18:33N 52°15' W 006°20'3 3.2
2017-Mar-18 17:33N 52°14' W 006°15'1817.6
2017-Mar-18 16:32N 52°11' W 005°46'2 0.3
2017-Mar-18 10:17N 52°09' W 005°46'1215.9
2017-Mar-18 09:33N 52°13' W 006°04'1010.1
2017-Mar-18 08:33N 52°15' W 006°20'0 0.0
2017-Mar-18 07:33N 52°15' W 006°20'0 0.0
2017-Mar-18 06:33N 52°15' W 006°20'1111.3
2017-Mar-18 05:33N 52°12' W 006°03'12 1.7
2017-Mar-17 22:29N 52°10' W 005°44'1516.4
2017-Mar-17 21:34N 52°13' W 006°08'8 7.8
2017-Mar-17 20:33N 52°15' W 006°20'0 0.0
2017-Mar-17 19:33N 52°15' W 006°20'0 0.2
2017-Mar-17 18:33N 52°15' W 006°20'1414.2
2017-Mar-17 17:33N 52°18' W 005°57'9 1.3
2017-Mar-17 10:14N 52°10' W 005°48'1318.9
2017-Mar-17 09:33N 52°14' W 006°09'7 7.3
2017-Mar-17 08:33N 52°15' W 006°20'0 0.0
2017-Mar-17 07:33N 52°15' W 006°20'0 0.0
2017-Mar-17 06:33N 52°15' W 006°20'1211.6
2017-Mar-17 05:34N 52°13' W 006°01'8 1.1
2017-Mar-16 22:20N 52°09' W 005°50'20 0.9
2017-Mar-15 23:23N 52°06' W 005°18'1 0.1
2017-Mar-15 11:16N 52°06' W 005°19'2816.5
2017-Mar-15 09:33N 52°13' W 006°04'29 2.9
2017-Mar-14 23:21N 52°05' W 005°18'  
Track history (hours):
 
Tides and Currents Weather Stations Pressure Air Temp Water Temp Dewpoint Dewpoint Depression Visibility Wind Speed Wind Dir Waves Ship Positions

Stena Europe

Operator: Stena Line

Last reported at 2017-Mar-24 19:34 UTC. Time now 2017-Mar-24 19:58 UTC.
Position N 52°15' W 006°20'.

Length 149 m; draft 6 m.

Type: Passenger vessel. MMSI: 235004539.

Date/timePositionNaut miles runAvg speedWind from/ knotsBaromVisibWave heightAir tempDewpointWater temp
2017-Mar-24 19:34N 52°15' W 006°20'0 0.0
2017-Mar-24 18:34N 52°15' W 006°20'5 4.6
2017-Mar-24 17:33N 52°14' W 006°13'1616.0
2017-Mar-24 16:33N 52°10' W 005°47'1 0.1
2017-Mar-24 10:17N 52°10' W 005°46'1217.1
2017-Mar-24 09:33N 52°13' W 006°06'9 9.3
2017-Mar-24 08:33N 52°15' W 006°20'0 0.0
2017-Mar-24 07:33N 52°15' W 006°20'0 0.1
2017-Mar-24 06:33N 52°15' W 006°20'1616.2
2017-Mar-24 05:33N 52°11' W 005°55'2 0.3
2017-Mar-23 23:33N 52°11' W 005°57'1514.5
2017-Mar-23 22:33N 52°15' W 006°20'0 0.0
2017-Mar-23 21:33N 52°15' W 006°20'8 8.4
2017-Mar-23 20:34N 52°20' W 006°09'2 2.5
2017-Mar-23 19:33N 52°17' W 006°10'7 6.6
2017-Mar-23 18:33N 52°15' W 006°20'4 4.4
2017-Mar-23 17:33N 52°14' W 006°13'1716.6
2017-Mar-23 16:33N 52°10' W 005°47'12 1.7
2017-Mar-23 09:33N 52°13' W 006°06'9 9.1
2017-Mar-23 08:33N 52°15' W 006°20'0 0.0
2017-Mar-23 07:33N 52°15' W 006°20'1 1.0
2017-Mar-23 06:33N 52°16' W 006°19'9 9.1
2017-Mar-23 05:34N 52°13' W 006°05'13 1.8
2017-Mar-22 22:31N 52°10' W 005°45'1516.0
2017-Mar-22 21:33N 52°13' W 006°09'7 7.0
2017-Mar-22 20:33N 52°15' W 006°20'0 0.0
2017-Mar-22 19:33N 52°15' W 006°20'0 0.0
2017-Mar-22 18:33N 52°15' W 006°20'4 4.5
2017-Mar-22 17:33N 52°14' W 006°13'1716.7
2017-Mar-22 16:33N 52°10' W 005°47'11 1.6
2017-Mar-22 09:33N 52°13' W 006°04'1010.3
2017-Mar-22 08:33N 52°15' W 006°20'0 0.0
2017-Mar-22 07:33N 52°15' W 006°20'0 0.0
2017-Mar-22 06:33N 52°15' W 006°20'1010.5
2017-Mar-22 05:34N 52°13' W 006°04'4 0.5
2017-Mar-21 22:04N 52°12' W 005°58'815.9
2017-Mar-21 21:33N 52°14' W 006°11'6 6.2
2017-Mar-21 20:33N 52°15' W 006°20'0 0.0
2017-Mar-21 19:34N 52°15' W 006°20'0 0.0
2017-Mar-21 18:33N 52°15' W 006°20'3 2.9
2017-Mar-21 17:33N 52°14' W 006°16'1616.2
2017-Mar-21 16:33N 52°11' W 005°50'1 0.2
2017-Mar-21 10:15N 52°11' W 005°48'1115.7
2017-Mar-21 09:33N 52°13' W 006°06'9 9.3
2017-Mar-21 08:33N 52°15' W 006°20'0 0.0
2017-Mar-21 07:33N 52°15' W 006°20'0 0.0
2017-Mar-21 06:33N 52°15' W 006°20'1110.8
2017-Mar-21 05:33N 52°12' W 006°03'4 0.6
2017-Mar-20 22:23N 52°11' W 005°57'1517.9
2017-Mar-20 21:33N 52°16' W 006°20'0 0.5
2017-Mar-20 20:33N 52°15' W 006°20'0 0.0
2017-Mar-20 19:33N 52°15' W 006°20'0 0.0
2017-Mar-20 18:33N 52°15' W 006°20'4 3.9
2017-Mar-20 17:34N 52°14' W 006°14'1717.2
2017-Mar-20 16:33N 52°10' W 005°47'12 1.7
2017-Mar-20 09:33N 52°13' W 006°06'9 9.1
2017-Mar-20 08:33N 52°15' W 006°20'0 0.0
2017-Mar-20 07:33N 52°15' W 006°20'0 0.0
2017-Mar-20 06:33N 52°15' W 006°20'1010.4
2017-Mar-20 05:34N 52°12' W 006°04'1312.7
2017-Mar-20 04:33N 52°10' W 005°43'14 2.0
2017-Mar-19 21:33N 52°13' W 006°06'9 8.9
2017-Mar-19 20:33N 52°15' W 006°20'0 0.0
2017-Mar-19 19:33N 52°15' W 006°20'0 0.0
2017-Mar-19 18:34N 52°15' W 006°20'10 9.5
2017-Mar-19 17:34N 52°13' W 006°05'12 1.7
2017-Mar-19 10:16N 52°10' W 005°46'1115.7
2017-Mar-19 09:33N 52°13' W 006°04'1010.5
2017-Mar-19 08:33N 52°15' W 006°20'0 0.0
2017-Mar-19 07:33N 52°15' W 006°20'0 0.0
2017-Mar-19 06:33N 52°15' W 006°20'10 9.5
2017-Mar-19 05:33N 52°13' W 006°05'1313.1
2017-Mar-19 04:33N 52°09' W 005°45'4 0.6
2017-Mar-18 22:29N 52°11' W 005°49'1617.6
2017-Mar-18 21:34N 52°14' W 006°15'3 3.3
2017-Mar-18 20:34N 52°15' W 006°20'0 0.0
2017-Mar-18 19:34N 52°15' W 006°20'0 0.0
2017-Mar-18 18:33N 52°15' W 006°20'3 3.2
2017-Mar-18 17:33N 52°14' W 006°15'1817.6
2017-Mar-18 16:32N 52°11' W 005°46'2 0.3
2017-Mar-18 10:17N 52°09' W 005°46'1215.9
2017-Mar-18 09:33N 52°13' W 006°04'1010.1
2017-Mar-18 08:33N 52°15' W 006°20'0 0.0
2017-Mar-18 07:33N 52°15' W 006°20'0 0.0
2017-Mar-18 06:33N 52°15' W 006°20'1111.3
2017-Mar-18 05:33N 52°12' W 006°03'12 1.7
2017-Mar-17 22:29N 52°10' W 005°44'1516.4
2017-Mar-17 21:34N 52°13' W 006°08'8 7.8
2017-Mar-17 20:33N 52°15' W 006°20'0 0.0
2017-Mar-17 19:33N 52°15' W 006°20'0 0.2
2017-Mar-17 18:33N 52°15' W 006°20'1414.2
2017-Mar-17 17:33N 52°18' W 005°57'9 1.3
2017-Mar-17 10:14N 52°10' W 005°48'1318.9
2017-Mar-17 09:33N 52°14' W 006°09'7 7.3
2017-Mar-17 08:33N 52°15' W 006°20'0 0.0
2017-Mar-17 07:33N 52°15' W 006°20'0 0.0
2017-Mar-17 06:33N 52°15' W 006°20'1211.6
2017-Mar-17 05:34N 52°13' W 006°01'8 1.1
2017-Mar-16 22:20N 52°09' W 005°50'20 0.9
2017-Mar-15 23:23N 52°06' W 005°18'1 0.1
2017-Mar-15 11:16N 52°06' W 005°19'2816.5
2017-Mar-15 09:33N 52°13' W 006°04'29 2.9
2017-Mar-14 23:21N 52°05' W 005°18'  

Dump ship's entire track history